EW4496 Weather Reports


time (UTC)temp
F
wind
direction
speed
knots
gust
knots
rain 1hr
in
rain 24hr
in
rain mn
in
humidity
%
barometer
mb
20260503230029 68 335 0.0 5.2 0.00 0.00 0.00 55 1010.8
20260503224543 68 328 0.9 6.1 0.00 0.00 0.00 57 1010.7
20260503223043 68 318 0.9 4.3 0.00 0.00 0.00 57 1010.9
20260503221546 68 298 0.9 5.2 0.00 0.00 0.00 57 1011.0
20260503220043 68 333 0.0 7.0 0.00 0.00 0.00 58 1011.0
20260503214603 67 245 0.0 6.1 0.00 0.00 0.00 58 1011.3
20260503213059 67 304 0.0 7.8 0.00 0.00 0.00 58 1011.2
20260503211600 68 285 2.6 8.7 0.00 0.00 0.00 57 1011.2
20260503210100 68 339 0.9 9.6 0.00 0.00 0.00 57 1011.3
20260503204603 69 240 0.9 7.0 0.00 0.00 0.00 55 1011.3
20260503203103 69 308 0.0 8.7 0.00 0.00 0.00 56 1011.4
20260503201558 69 258 2.6 13.0 0.00 0.00 0.00 54 1011.6
20260503200059 67 289 0.0 9.6 0.00 0.00 0.00 58 1011.5
20260503194559 66 293 0.9 7.8 0.00 0.00 0.00 59 1011.6
20260503193111 65 328 0.9 7.0 0.00 0.00 0.00 60 1011.7
20260503191517 64 234 1.7 7.0 0.00 0.00 0.00 62 1011.9
20260503190110 63 266 1.7 6.1 0.00 0.00 0.00 64 1012.0
20260503184507 63 231 0.0 7.0 0.00 0.00 0.00 65 1012.1
20260503183008 63 258 3.5 8.7 0.00 0.00 0.00 65 1012.2
20260503181504 63 349 1.7 7.0 0.00 0.00 0.00 65 1012.1
20260503180007 63 306 2.6 7.8 0.00 0.00 0.00 66 1012.0
20260503174502 62 296 0.9 7.8 0.00 0.00 0.00 66 1012.2
20260503173002 62 285 0.9 7.0 0.00 0.00 0.00 68 1012.0
20260503171501 60 193 0.9 8.7 0.00 0.00 0.00 71 1011.9
20260503100110 53 187 0.0 0.0 0.00 0.00 0.00 89 1009.3
20260503090106 53 191 0.0 0.0 0.00 0.00 0.00 89 1009.5
20260503081615 53 190 0.0 0.0 0.00 0.00 0.00 87 1009.9
20260503080104 53 188 0.0 1.7 0.00 0.00 0.00 87 1010.0
20260503071517 54 191 0.0 0.0 0.00 0.00 0.00 87 1010.3
20260503054537 56 285 0.0 0.0 0.00 0.00 0.00 81 1010.5
20260503053029 56 296 0.0 0.0 0.00 0.00 0.00 80 1010.5
20260503051550 56 245 0.0 0.0 0.00 0.00 0.00 80 1010.5
20260503050044 57 278 0.0 2.6 0.00 0.00 0.00 79 1010.5
20260503044544 58 308 0.0 0.9 0.00 0.00 0.00 79 1010.3
20260503043043 58 285 0.0 0.0 0.00 0.00 0.00 79 1010.1
20260503041543 59 285 0.0 0.0 0.00 0.00 0.00 77 1009.9
20260503040058 60 333 0.0 0.9 0.00 0.00 0.00 75 1009.8
20260503034558 60 309 0.0 1.7 0.00 0.00 0.00 74 1009.6
20260503033101 61 299 0.0 4.3 0.00 0.00 0.00 72 1009.4
20260503031558 62 290 0.0 5.2 0.00 0.00 0.00 70 1009.3
20260503030058 63 301 0.0 3.5 0.00 0.00 0.00 70 1009.2
20260503024605 64 309 0.0 3.5 0.00 0.00 0.00 70 1009.2
20260503023103 65 316 0.0 4.3 0.00 0.00 0.00 68 1009.1
20260503021601 66 309 0.0 2.6 0.00 0.00 0.00 66 1009.0
20260503020101 67 300 0.0 1.7 0.00 0.00 0.00 63 1009.0
20260503014623 67 321 0.0 5.2 0.00 0.00 0.00 61 1009.0
20260503013059 69 304 0.9 5.2 0.00 0.00 0.00 59 1009.1
20260503011513 69 325 0.9 5.2 0.00 0.00 0.00 57 1009.0
20260503010016 70 264 0.0 5.2 0.00 0.00 0.00 58 1009.0
20260503004523 70 231 0.9 4.3 0.00 0.00 0.00 57 1008.9
20260503003014 71 318 0.0 4.3 0.00 0.00 0.00 58 1009.1
20260503001512 71 335 0.0 6.1 0.00 0.00 0.00 57 1009.1
20260503000012 72 328 0.9 6.1 0.00 0.00 0.00 57 1009.2
20260502234512 72 13 0.0 6.1 0.00 0.00 0.00 53 1009.3
20260502233013 73 273 0.0 3.5 0.00 0.00 0.00 52 1009.4
20260502231516 73 331 0.9 7.0 0.00 0.00 0.00 52 1009.5